Terminal Aerodrome Forecast
Issued by NWS Louisville, KY

Home | Current Version | Previous Version | Text Only | Print | Product List | Glossary On
Versions: 1 2 3 4 5 6 7 8 9 10 11 12 13 14 15 16 17 18 19 20 21
000
FTUS43 KLMK 200500
TAFSDF
TAF
KSDF 200535Z 2006/2112 15003KT P6SM FEW040 BKN250
     FM201500 20010KT P6SM SCT045 BKN250
     FM210100 21005KT P6SM BKN250=

USA.gov is the U.S. government's official web portal to all federal, state and local government web resources and services.